Temp
-9 -9 -9 -9 -9 -9 -9 -9 -9 -9 -9 -9 -9 -9 -9 -8 -8 -8 -8 -9 -9 -9 -9 -8 -8 -8 -8 -7 -8 -8 -8 -8 -7 -6 -6 -6 -6 -6 -5 -6 -6 -6 -6 -6 -6 -6 -6 -6 -6 -6 -6 -6 -6 -6 -5 -5 -5 -5 -5 -5 -5 -5 -5
-10 -10 -9 -10 -10 -10 -10 -9 -9 -9 -9 -9 -9 -9 -9 -9 -9 -9 -9 -9 -9 -9 -9 -9 -8 -8 -7 -7 -7 -7 -7 -7 -7 -6 -6 -6 -6 -6 -6 -6 -6 -6 -6 -6 -6 -6 -6 -6 -6 -6 -6 -7 -6 -6 -5 -5 -5 -5 -6 -5 -5 -5 -5
-11 -11 -10 -11 -11 -11 -10 -10 -10 -10 -10 -9 -9 -9 -9 -9 -9 -9 -9 -9 -9 -9 -9 -8 -8 -8 -7 -7 -7 -7 -7 -7 -7 -6 -6 -6 -6 -7 -6 -6 -5 -5 -6 -6 -6 -6 -6 -6 -6 -6 -6 -6 -6 -6 -5 -5 -5 -5 -5 -5 -5 -5 -5
-12 -12 -11 -12 -12 -11 -11 -11 -11 -10 -10 -10 -9 -9 -9 -9 -9 -9 -9 -9 -9 -9 -9 -8 -8 -8 -8 -7 -7 -7 -7 -7 -7 -6 -6 -6 -6 -6 -7 -6 -6 -6 -6 -6 -6 -6 -6 -6 -6 -6 -6 -6 -6 -6 -5 -5 -5 -5 -5 -5 -5 -5 -5
-13 -13 -12 -12 -12 -12 -12 -12 -11 -11 -11 -10 -10 -9 -9 -10 -9 -9 -9 -9 -9 -9 -9 -9 -8 -8 -8 -7 -7 -7 -7 -7 -7 -6 -6 -6 -6 -6 -7 -7 -7 -6 -6 -6 -6 -6 -6 -6 -6 -6 -6 -6 -6 -6 -5 -5 -5 -5 -5 -5 -5 -5 -5
-13 -13 -13 -13 -13 -13 -12 -12 -12 -12 -12 -11 -10 -10 -10 -10 -10 -9 -9 -9 -9 -8 -8 -8 -8 -8 -8 -8 -8 -8 -7 -7 -7 -6 -6 -7 -7 -7 -7 -7 -7 -7 -6 -6 -6 -6 -6 -6 -6 -6 -6 -6 -6 -6 -6 -6 -5 -5 -5 -5 -5 -5 -5
-14 -14 -14 -13 -13 -13 -13 -13 -12 -12 -12 -11 -11 -11 -10 -10 -10 -10 -10 -10 -9 -8 -8 -8 -8 -8 -8 -8 -8 -8 -7 -7 -7 -7 -7 -7 -7 -7 -7 -7 -7 -7 -6 -6 -6 -6 -6 -6 -6 -6 -6 -6 -6 -6 -6 -6 -6 -6 -6 -5 -5 -5 -5
-14 -14 -14 -14 -13 -13 -13 -13 -13 -13 -13 -12 -12 -11 -11 -10 -10 -10 -10 -10 -9 -9 -9 -9 -9 -8 -8 -8 -8 -8 -7 -7 -7 -7 -6 -7 -7 -8 -7 -7 -7 -7 -7 -6 -6 -6 -6 -6 -6 -6 -6 -6 -6 -6 -6 -6 -6 -6 -6 -5 -5 -5 -5
-14 -14 -14 -14 -14 -13 -13 -13 -13 -13 -13 -13 -12 -12 -11 -11 -10 -10 -10 -10 -10 -9 -9 -9 -9 -9 -8 -8 -8 -8 -8 -7 -7 -7 -7 -7 -7 -7 -7 -7 -7 -7 -7 -6 -6 -6 -6 -6 -6 -6 -6 -6 -6 -6 -6 -6 -6 -6 -5 -5 -5 -5 -6
-15 -15 -14 -14 -14 -14 -14 -13 -13 -13 -13 -13 -13 -12 -12 -11 -11 -11 -10 -10 -10 -10 -9 -9 -9 -9 -9 -9 -8 -8 -8 -8 -7 -7 -7 -7 -7 -7 -7 -7 -7 -7 -6 -6 -6 -6 -6 -7 -7 -7 -7 -7 -7 -7 -6 -6 -6 -6 -5 -5 -5 -5 -5
-15 -15 -15 -14 -14 -14 -14 -14 -13 -13 -13 -13 -13 -13 -12 -12 -12 -11 -11 -10 -10 -10 -9 -9 -9 -9 -9 -9 -9 -8 -8 -8 -8 -7 -7 -7 -7 -7 -7 -7 -7 -7 -7 -6 -6 -6 -7 -7 -7 -7 -7 -7 -7 -7 -7 -7 -7 -6 -6 -5 -5 -5 -5
-14 -15 -15 -15 -14 -14 -14 -14 -14 -13 -13 -13 -13 -13 -12 -12 -12 -12 -11 -11 -11 -10 -10 -9 -9 -9 -9 -9 -9 -9 -8 -8 -8 -7 -7 -7 -7 -7 -7 -7 -7 -7 -7 -7 -6 -6 -7 -7 -7 -7 -7 -7 -7 -7 -7 -7 -7 -7 -6 -6 -6 -5 -5
-14 -14 -15 -15 -15 -14 -14 -14 -14 -14 -14 -13 -13 -13 -13 -12 -12 -12 -11 -11 -11 -10 -10 -10 -9 -9 -9 -9 -9 -9 -9 -9 -8 -8 -7 -8 -8 -8 -8 -7 -7 -7 -7 -7 -6 -6 -7 -7 -7 -7 -7 -7 -7 -7 -7 -7 -7 -7 -7 -7 -6 -6 -6
-14 -14 -14 -15 -15 -15 -14 -14 -14 -14 -14 -14 -13 -13 -13 -13 -13 -12 -12 -11 -11 -11 -10 -10 -9 -9 -9 -9 -9 -9 -9 -9 -9 -8 -8 -8 -8 -8 -8 -8 -7 -7 -7 -7 -7 -6 -7 -7 -6 -6 -6 -6 -6 -6 -6 -6 -6 -7 -7 -7 -6 -6 -6
-14 -14 -14 -14 -14 -15 -15 -14 -14 -14 -14 -14 -14 -13 -13 -13 -13 -13 -12 -12 -12 -11 -11 -10 -10 -9 -9 -9 -9 -9 -9 -9 -9 -9 -8 -8 -8 -8 -8 -8 -7 -7 -7 -7 -7 -6 -6 -6 -6 -6 -6 -6 -6 -6 -6 -6 -6 -6 -6 -6 -6 -6 -6
-14 -14 -14 -14 -14 -14 -15 -15 -14 -14 -14 -14 -14 -14 -13 -13 -13 -13 -13 -12 -12 -12 -11 -10 -10 -10 -10 -9 -10 -10 -9 -9 -9 -9 -8 -8 -8 -8 -8 -8 -8 -7 -7 -7 -7 -7 -6 -6 -6 -6 -6 -6 -6 -6 -6 -6 -6 -6 -6 -6 -6 -6 -6
-14 -14 -14 -14 -14 -14 -14 -15 -15 -14 -14 -14 -14 -14 -13 -13 -13 -13 -13 -13 -12 -12 -11 -10 -10 -10 -10 -10 -10 -10 -9 -9 -9 -9 -9 -8 -8 -8 -8 -8 -8 -8 -7 -7 -7 -7 -6 -6 -6 -6 -6 -6 -6 -6 -6 -6 -6 -6 -6 -6 -6 -6 -6
-16 -15 -15 -14 -14 -14 -14 -14 -15 -15 -14 -14 -14 -14 -14 -13 -13 -13 -13 -13 -12 -12 -11 -11 -11 -11 -11 -10 -10 -10 -9 -9 -9 -9 -9 -9 -9 -8 -8 -8 -8 -8 -8 -7 -7 -7 -7 -6 -6 -6 -6 -6 -6 -6 -6 -6 -6 -6 -6 -6 -6 -6 -6
-17 -17 -16 -15 -14 -14 -14 -14 -14 -14 -15 -14 -14 -14 -14 -14 -13 -13 -13 -13 -13 -12 -12 -11 -11 -11 -11 -10 -10 -10 -9 -9 -9 -9 -9 -9 -9 -8 -8 -8 -8 -7 -7 -7 -7 -7 -7 -6 -6 -6 -6 -6 -6 -6 -7 -7 -6 -6 -6 -6 -6 -6 -6
-17 -18 -17 -16 -15 -14 -15 -14 -14 -14 -14 -14 -15 -14 -14 -14 -13 -13 -13 -13 -13 -12 -12 -11 -11 -11 -11 -11 -10 -10 -10 -9 -9 -9 -9 -9 -9 -8 -8 -8 -7 -7 -7 -7 -7 -7 -7 -6 -6 -6 -6 -6 -6 -6 -7 -6 -6 -6 -6 -6 -6 -6 -6
-18 -18 -18 -17 -16 -16 -15 -15 -15 -15 -14 -14 -14 -15 -14 -14 -14 -13 -13 -13 -13 -13 -12 -12 -11 -11 -11 -11 -11 -10 -10 -9 -9 -9 -9 -9 -9 -9 -8 -8 -8 -7 -7 -7 -7 -7 -7 -6 -6 -6 -6 -6 -6 -6 -7 -6 -6 -7 -7 -6 -6 -6 -6
-18 -18 -18 -18 -17 -17 -17 -17 -17 -16 -15 -15 -15 -15 -15 -14 -14 -14 -13 -13 -13 -13 -12 -12 -11 -11 -11 -11 -11 -10 -10 -9 -9 -9 -9 -9 -9 -9 -9 -8 -8 -7 -7 -7 -7 -7 -7 -7 -6 -6 -6 -6 -6 -6 -7 -7 -7 -7 -7 -6 -6 -6 -6
-18 -18 -18 -18 -18 -18 -18 -18 -18 -17 -16 -16 -15 -15 -14 -14 -14 -14 -14 -13 -13 -13 -13 -12 -12 -11 -11 -11 -11 -11 -10 -10 -9 -9 -9 -9 -9 -9 -9 -9 -8 -8 -7 -7 -7 -8 -8 -7 -7 -7 -7 -6 -6 -7 -7 -7 -7 -7 -7 -7 -6 -6 -6
-18 -18 -18 -18 -18 -18 -18 -19 -19 -19 -18 -17 -16 -15 -15 -14 -14 -14 -14 -14 -13 -13 -13 -13 -12 -12 -11 -11 -12 -11 -11 -10 -10 -9 -9 -9 -9 -9 -9 -9 -9 -8 -8 -8 -8 -8 -8 -8 -8 -8 -7 -7 -7 -7 -7 -7 -7 -7 -7 -7 -7 -7 -7
-19 -18 -18 -18 -19 -19 -19 -19 -19 -19 -19 -18 -17 -16 -15 -15 -14 -14 -14 -14 -13 -13 -13 -13 -12 -12 -11 -11 -12 -12 -11 -11 -10 -9 -9 -9 -9 -9 -9 -9 -9 -8 -8 -8 -8 -8 -7 -7 -8 -8 -8 -7 -7 -7 -7 -7 -7 -7 -7 -7 -7 -7 -6
-19 -19 -19 -19 -19 -19 -19 -19 -19 -20 -20 -19 -18 -16 -16 -15 -15 -14 -14 -14 -14 -13 -13 -13 -13 -12 -12 -11 -11 -12 -12 -11 -10 -10 -10 -10 -9 -9 -9 -9 -9 -9 -8 -8 -8 -8 -8 -8 -8 -8 -8 -7 -7 -7 -7 -7 -7 -7 -7 -7 -7 -6 -6
-19 -19 -19 -19 -19 -19 -19 -19 -19 -20 -20 -19 -18 -18 -17 -16 -15 -15 -14 -14 -14 -14 -14 -13 -13 -13 -12 -12 -11 -11 -12 -12 -11 -10 -10 -10 -10 -9 -9 -9 -9 -9 -9 -8 -8 -8 -8 -8 -8 -8 -8 -8 -7 -7 -7 -7 -7 -7 -7 -7 -7 -6 -6
-19 -19 -19 -19 -19 -19 -19 -19 -19 -19 -19 -19 -19 -18 -18 -17 -16 -15 -15 -14 -14 -14 -14 -14 -13 -13 -13 -12 -12 -11 -11 -12 -11 -11 -10 -10 -10 -10 -10 -10 -9 -9 -9 -9 -8 -8 -8 -8 -8 -8 -8 -8 -8 -8 -8 -7 -7 -7 -7 -7 -7 -7 -6
-19 -19 -19 -19 -19 -19 -19 -19 -19 -19 -19 -19 -19 -19 -18 -18 -17 -16 -15 -15 -14 -14 -14 -14 -14 -13 -13 -13 -12 -12 -11 -11 -12 -11 -11 -11 -11 -10 -10 -10 -10 -9 -9 -9 -9 -8 -8 -8 -8 -8 -8 -8 -8 -8 -8 -7 -7 -7 -7 -7 -7 -7 -7
-19 -19 -19 -19 -18 -18 -19 -19 -19 -19 -19 -19 -19 -19 -18 -18 -18 -17 -16 -15 -15 -14 -14 -14 -14 -14 -13 -13 -13 -12 -12 -11 -12 -12 -11 -11 -11 -11 -11 -10 -10 -9 -9 -9 -9 -9 -8 -8 -8 -9 -9 -9 -8 -8 -8 -8 -8 -8 -8 -7 -7 -7 -7
-19 -19 -19 -19 -19 -18 -18 -18 -18 -19 -19 -19 -19 -19 -19 -18 -18 -18 -17 -16 -16 -15 -15 -14 -14 -14 -13 -13 -13 -13 -12 -11 -11 -12 -12 -11 -11 -11 -11 -11 -10 -10 -9 -9 -9 -9 -9 -8 -8 -9 -9 -8 -8 -8 -8 -8 -8 -8 -8 -7 -7 -7 -7
-19 -19 -19 -19 -19 -19 -18 -18 -18 -18 -19 -19 -19 -19 -19 -19 -19 -18 -18 -17 -16 -16 -15 -15 -14 -14 -14 -13 -13 -13 -13 -12 -11 -11 -12 -12 -11 -11 -11 -11 -11 -10 -10 -9 -9 -10 -9 -9 -9 -9 -8 -8 -8 -8 -8 -8 -8 -8 -8 -8 -7 -7 -7
-19 -19 -19 -19 -19 -19 -19 -19 -19 -19 -18 -19 -19 -19 -19 -19 -19 -19 -18 -18 -17 -16 -16 -15 -15 -14 -14 -14 -13 -13 -13 -13 -12 -12 -12 -12 -11 -11 -11 -11 -11 -11 -11 -10 -10 -10 -10 -10 -9 -9 -8 -8 -8 -9 -8 -8 -8 -8 -8 -8 -8 -8 -8
-19 -19 -19 -19 -19 -19 -19 -19 -19 -19 -19 -19 -19 -19 -18 -19 -19 -19 -19 -18 -18 -17 -17 -16 -16 -15 -15 -14 -14 -14 -14 -13 -13 -12 -12 -12 -11 -11 -11 -11 -11 -11 -11 -11 -10 -10 -10 -10 -10 -9 -9 -9 -9 -9 -8 -8 -8 -9 -9 -8 -8 -8 -8
-19 -19 -19 -19 -19 -19 -19 -19 -19 -19 -19 -19 -19 -19 -19 -18 -18 -18 -18 -18 -18 -18 -17 -17 -16 -16 -15 -15 -14 -14 -14 -14 -13 -13 -12 -12 -12 -11 -11 -11 -11 -11 -11 -11 -11 -11 -11 -10 -10 -10 -9 -9 -9 -9 -9 -8 -9 -9 -9 -8 -8 -8 -8
-19 -19 -18 -19 -19 -19 -19 -19 -19 -19 -18 -18 -18 -18 -18 -18 -18 -18 -18 -18 -18 -18 -18 -18 -17 -17 -16 -15 -15 -14 -14 -14 -13 -13 -13 -12 -12 -12 -11 -11 -11 -11 -11 -11 -11 -11 -11 -10 -10 -10 -10 -9 -9 -9 -9 -9 -9 -8 -8 -8 -8 -8 -8
-18 -19 -19 -19 -19 -19 -19 -19 -19 -19 -19 -18 -18 -18 -18 -18 -18 -18 -18 -18 -18 -18 -18 -18 -18 -17 -17 -16 -16 -15 -14 -14 -14 -13 -13 -12 -12 -12 -12 -11 -11 -11 -11 -11 -11 -11 -11 -11 -10 -10 -10 -10 -9 -9 -9 -9 -9 -8 -8 -8 -8 -8 -8
Height
5800 5803 5806 5810 5812 5813 5814 5818 5821 5822 5825 5828 5831 5834 5837 5839 5842 5843 5845 5847 5848 5851 5855 5857 5859 5861 5863 5865 5868 5871 5873 5874 5876 5878 5881 5883 5884 5885 5886 5887 5888 5890 5891 5893 5895 5896 5897 5899 5900 5902 5904 5905 5906 5907 5909 5910 5912 5914 5916 5919 5921 5923 5925
5796 5799 5803 5806 5807 5809 5810 5813 5817 5821 5823 5825 5827 5830 5832 5835 5837 5839 5843 5846 5846 5847 5850 5853 5856 5858 5859 5862 5864 5866 5868 5870 5872 5875 5878 5881 5882 5884 5885 5885 5886 5888 5890 5892 5894 5895 5896 5898 5899 5900 5901 5903 5904 5905 5907 5908 5910 5913 5915 5916 5918 5921 5923
5793 5795 5798 5801 5803 5805 5807 5810 5814 5817 5819 5821 5824 5827 5829 5831 5833 5835 5839 5843 5843 5843 5846 5849 5852 5854 5856 5858 5860 5863 5864 5866 5868 5872 5875 5878 5879 5880 5882 5884 5885 5887 5889 5891 5893 5894 5895 5896 5897 5898 5899 5900 5902 5904 5905 5906 5908 5910 5912 5914 5916 5918 5921
5790 5792 5794 5797 5799 5802 5804 5807 5809 5812 5814 5816 5819 5823 5825 5828 5830 5832 5836 5839 5839 5840 5842 5844 5846 5849 5852 5854 5857 5860 5861 5863 5866 5869 5871 5874 5876 5878 5881 5883 5885 5886 5887 5889 5891 5893 5894 5895 5896 5897 5898 5899 5901 5902 5903 5904 5906 5908 5910 5913 5915 5917 5919
5787 5788 5790 5793 5796 5799 5801 5802 5805 5807 5810 5812 5816 5819 5821 5824 5826 5829 5833 5834 5836 5837 5838 5839 5842 5844 5848 5851 5854 5856 5858 5860 5863 5866 5868 5871 5873 5876 5879 5881 5883 5884 5885 5887 5889 5890 5892 5893 5894 5895 5896 5898 5899 5901 5902 5903 5904 5906 5909 5912 5914 5916 5918
5784 5785 5786 5789 5793 5795 5796 5798 5801 5803 5806 5809 5812 5815 5817 5819 5821 5825 5828 5830 5833 5834 5834 5836 5839 5841 5845 5848 5851 5854 5856 5857 5860 5862 5865 5867 5870 5873 5876 5879 5881 5883 5884 5885 5886 5888 5889 5891 5893 5894 5896 5897 5898 5899 5900 5901 5902 5904 5907 5909 5912 5914 5916
5781 5782 5783 5786 5789 5791 5792 5794 5797 5799 5802 5804 5808 5810 5812 5815 5818 5821 5824 5826 5828 5830 5831 5834 5837 5839 5843 5845 5848 5851 5853 5855 5857 5860 5862 5865 5867 5870 5873 5876 5878 5880 5881 5882 5884 5886 5887 5890 5892 5893 5894 5896 5897 5898 5899 5900 5901 5902 5904 5906 5909 5911 5913
5777 5779 5780 5782 5785 5787 5789 5791 5793 5795 5798 5801 5804 5806 5808 5811 5814 5816 5819 5821 5823 5826 5829 5832 5835 5838 5840 5842 5845 5848 5850 5853 5855 5858 5860 5861 5864 5866 5868 5871 5874 5876 5878 5879 5881 5883 5885 5888 5890 5892 5893 5894 5895 5896 5898 5899 5900 5900 5902 5903 5906 5908 5911
5773 5775 5776 5778 5781 5783 5785 5787 5790 5792 5794 5797 5800 5802 5804 5807 5809 5813 5816 5816 5817 5822 5826 5828 5832 5835 5837 5840 5843 5846 5848 5851 5853 5855 5856 5856 5858 5861 5863 5866 5868 5870 5873 5876 5878 5881 5884 5886 5888 5890 5891 5892 5894 5895 5897 5898 5898 5899 5900 5901 5903 5906 5908
5767 5770 5772 5774 5776 5779 5781 5784 5786 5788 5790 5793 5796 5798 5801 5803 5805 5809 5811 5811 5813 5819 5822 5824 5828 5831 5834 5837 5841 5843 5846 5849 5850 5852 5852 5852 5853 5855 5858 5861 5863 5865 5867 5870 5872 5875 5879 5882 5885 5887 5889 5890 5891 5893 5894 5896 5897 5897 5899 5900 5901 5903 5905
5763 5766 5768 5770 5772 5774 5776 5779 5782 5785 5787 5789 5792 5795 5797 5799 5801 5804 5807 5807 5810 5815 5817 5820 5824 5828 5831 5834 5837 5840 5843 5845 5847 5849 5850 5851 5851 5852 5854 5857 5860 5862 5864 5865 5867 5870 5872 5876 5879 5881 5884 5886 5887 5889 5891 5893 5894 5896 5897 5898 5899 5901 5903
5761 5763 5764 5765 5767 5768 5771 5775 5778 5780 5783 5786 5789 5791 5793 5795 5797 5800 5803 5805 5807 5810 5813 5816 5821 5825 5828 5831 5834 5837 5839 5841 5844 5846 5848 5849 5850 5850 5852 5854 5857 5860 5862 5864 5866 5867 5869 5871 5874 5876 5878 5880 5882 5884 5887 5889 5891 5893 5894 5896 5897 5899 5901
5758 5760 5760 5761 5762 5764 5768 5771 5773 5776 5778 5781 5784 5786 5788 5790 5793 5796 5799 5801 5803 5806 5810 5813 5817 5821 5825 5827 5830 5833 5836 5838 5840 5842 5844 5846 5847 5848 5850 5852 5854 5857 5859 5862 5864 5866 5868 5869 5872 5874 5876 5877 5878 5880 5882 5884 5886 5888 5890 5892 5894 5896 5898
5753 5756 5757 5757 5759 5761 5764 5767 5769 5771 5773 5775 5778 5781 5782 5785 5789 5792 5796 5798 5799 5802 5806 5810 5813 5817 5820 5824 5827 5829 5833 5835 5837 5838 5840 5842 5844 5846 5848 5849 5851 5853 5856 5858 5860 5863 5865 5867 5869 5872 5874 5875 5877 5878 5879 5880 5882 5884 5886 5889 5891 5893 5896
5747 5750 5752 5753 5755 5757 5760 5763 5765 5766 5767 5770 5773 5775 5777 5780 5785 5789 5792 5794 5795 5798 5802 5806 5808 5811 5815 5819 5822 5825 5829 5832 5833 5834 5835 5837 5840 5842 5844 5846 5847 5849 5852 5855 5857 5859 5862 5865 5867 5869 5871 5873 5875 5876 5877 5878 5880 5881 5883 5885 5888 5890 5892
5739 5742 5746 5749 5750 5752 5756 5758 5760 5760 5763 5765 5767 5770 5773 5776 5781 5785 5789 5790 5790 5793 5797 5801 5803 5806 5809 5813 5817 5820 5824 5827 5829 5830 5832 5833 5835 5837 5839 5841 5843 5845 5848 5851 5853 5855 5858 5861 5863 5866 5868 5870 5872 5873 5874 5876 5877 5878 5880 5883 5885 5887 5889
5731 5733 5738 5741 5744 5748 5751 5752 5754 5756 5758 5760 5763 5766 5769 5772 5776 5780 5782 5783 5785 5788 5792 5795 5798 5801 5804 5807 5811 5814 5818 5822 5824 5826 5828 5830 5832 5833 5835 5836 5838 5841 5844 5847 5849 5851 5853 5856 5859 5861 5864 5867 5869 5870 5870 5872 5874 5875 5876 5878 5881 5884 5886
5724 5725 5729 5732 5737 5743 5745 5746 5749 5751 5752 5754 5758 5761 5763 5767 5771 5774 5776 5778 5780 5783 5786 5789 5792 5796 5799 5802 5805 5809 5812 5816 5819 5821 5823 5825 5828 5830 5831 5832 5833 5836 5839 5842 5845 5847 5849 5852 5855 5857 5860 5863 5865 5867 5868 5870 5871 5873 5874 5875 5876 5879 5882
5718 5719 5721 5724 5731 5737 5737 5738 5741 5742 5744 5749 5752 5754 5757 5761 5765 5768 5772 5773 5775 5777 5780 5783 5787 5790 5794 5797 5800 5803 5806 5810 5812 5815 5817 5820 5823 5825 5826 5827 5829 5831 5833 5836 5840 5842 5845 5848 5851 5853 5855 5858 5861 5863 5866 5868 5870 5872 5876 5877 5876 5875 5877
5714 5714 5715 5718 5725 5727 5727 5729 5733 5734 5737 5742 5745 5747 5751 5754 5758 5763 5766 5767 5769 5772 5775 5778 5781 5785 5789 5792 5794 5797 5800 5803 5806 5809 5812 5815 5817 5819 5820 5822 5824 5826 5829 5832 5835 5838 5841 5844 5846 5848 5850 5852 5855 5858 5862 5866 5868 5871 5875 5878 5879 5878 5877
5710 5711 5711 5714 5717 5718 5718 5721 5724 5725 5729 5733 5736 5739 5743 5747 5752 5757 5760 5762 5764 5766 5769 5773 5775 5779 5783 5786 5788 5792 5795 5797 5800 5803 5805 5808 5811 5813 5815 5817 5819 5821 5824 5828 5830 5832 5836 5839 5841 5843 5845 5847 5850 5853 5857 5861 5865 5867 5870 5875 5879 5881 5881
5707 5707 5708 5710 5711 5711 5712 5714 5715 5717 5720 5723 5726 5731 5735 5739 5745 5750 5753 5756 5758 5760 5763 5767 5770 5773 5777 5780 5783 5786 5789 5792 5795 5797 5799 5802 5804 5807 5809 5812 5815 5817 5820 5823 5826 5828 5831 5833 5836 5840 5843 5843 5845 5848 5852 5856 5860 5863 5866 5870 5873 5876 5879
5703 5702 5703 5705 5706 5706 5706 5708 5708 5709 5712 5713 5716 5721 5727 5733 5738 5743 5747 5749 5752 5754 5757 5761 5764 5767 5770 5774 5777 5781 5784 5787 5789 5791 5794 5796 5798 5801 5805 5808 5810 5813 5815 5818 5821 5825 5827 5829 5833 5836 5838 5839 5841 5844 5847 5852 5855 5859 5863 5865 5867 5870 5874
5699 5698 5699 5701 5701 5700 5700 5702 5703 5703 5704 5705 5707 5711 5720 5727 5732 5736 5739 5742 5745 5748 5750 5753 5757 5760 5763 5767 5771 5775 5778 5781 5783 5785 5787 5790 5793 5796 5800 5803 5805 5808 5811 5813 5817 5820 5822 5825 5829 5832 5834 5836 5840 5843 5845 5848 5851 5854 5858 5861 5863 5866 5869
5694 5694 5694 5695 5695 5694 5695 5697 5698 5698 5697 5697 5699 5706 5715 5721 5724 5728 5731 5733 5737 5741 5743 5746 5748 5752 5755 5759 5763 5767 5771 5774 5777 5779 5781 5783 5786 5789 5793 5797 5799 5802 5805 5809 5812 5814 5817 5821 5825 5827 5829 5832 5836 5840 5842 5844 5847 5850 5854 5857 5860 5862 5864
5690 5690 5689 5689 5689 5689 5690 5691 5692 5693 5692 5691 5696 5703 5709 5712 5715 5719 5722 5725 5728 5732 5736 5738 5739 5743 5748 5752 5755 5759 5763 5766 5769 5772 5774 5777 5780 5783 5786 5790 5793 5796 5799 5803 5806 5809 5811 5816 5821 5823 5825 5828 5831 5835 5838 5841 5843 5846 5849 5852 5855 5857 5859
5685 5685 5684 5684 5684 5685 5685 5685 5686 5688 5688 5689 5693 5698 5701 5703 5707 5710 5714 5717 5720 5724 5727 5731 5733 5736 5741 5745 5748 5751 5755 5758 5761 5764 5768 5771 5774 5776 5779 5783 5787 5791 5794 5797 5801 5804 5806 5811 5816 5819 5821 5824 5827 5831 5834 5836 5839 5842 5845 5847 5850 5852 5854
5681 5681 5681 5680 5680 5680 5681 5681 5683 5684 5686 5687 5690 5692 5694 5696 5699 5701 5704 5708 5711 5714 5718 5723 5726 5728 5733 5738 5742 5744 5747 5750 5754 5757 5761 5764 5768 5769 5772 5776 5780 5785 5789 5792 5795 5799 5802 5806 5810 5814 5817 5820 5823 5826 5829 5832 5835 5838 5840 5843 5845 5848 5850
5678 5678 5678 5677 5677 5677 5678 5678 5679 5681 5682 5684 5685 5686 5688 5690 5692 5693 5696 5699 5701 5705 5709 5714 5718 5721 5724 5730 5735 5738 5740 5743 5746 5750 5753 5757 5761 5764 5766 5769 5773 5778 5782 5786 5789 5793 5797 5800 5804 5808 5812 5815 5818 5821 5824 5827 5830 5833 5836 5839 5841 5844 5846
5675 5675 5675 5674 5674 5674 5675 5675 5676 5678 5678 5679 5680 5681 5683 5684 5685 5686 5688 5691 5693 5697 5700 5705 5710 5713 5716 5721 5727 5731 5733 5735 5738 5742 5746 5750 5753 5757 5760 5764 5768 5772 5776 5780 5784 5787 5791 5794 5799 5803 5806 5809 5812 5816 5819 5822 5825 5828 5831 5834 5837 5838 5841
5673 5672 5672 5671 5671 5671 5672 5672 5673 5674 5675 5675 5676 5676 5677 5678 5679 5679 5681 5683 5685 5688 5691 5696 5702 5706 5708 5712 5718 5723 5727 5729 5731 5734 5739 5743 5746 5749 5754 5758 5762 5766 5771 5774 5778 5782 5785 5789 5793 5797 5800 5803 5807 5810 5814 5816 5820 5824 5827 5830 5831 5833 5835
5671 5670 5669 5668 5668 5668 5668 5669 5669 5670 5671 5671 5671 5672 5672 5672 5673 5673 5674 5675 5678 5680 5683 5687 5692 5697 5700 5703 5707 5714 5719 5723 5725 5727 5730 5734 5738 5742 5746 5751 5756 5761 5765 5769 5772 5776 5780 5784 5788 5791 5794 5797 5801 5805 5808 5811 5815 5819 5823 5825 5827 5828 5830
5670 5669 5667 5666 5665 5665 5664 5665 5665 5665 5666 5667 5667 5667 5667 5667 5667 5667 5668 5669 5670 5673 5676 5678 5682 5688 5692 5694 5697 5703 5710 5716 5718 5720 5722 5726 5730 5734 5738 5743 5749 5754 5759 5763 5766 5770 5774 5778 5782 5786 5789 5792 5796 5800 5803 5806 5810 5814 5818 5821 5823 5825 5827
5668 5667 5666 5664 5663 5662 5662 5661 5661 5661 5661 5661 5662 5661 5661 5661 5662 5662 5662 5663 5664 5665 5668 5670 5673 5678 5683 5686 5689 5694 5701 5708 5711 5712 5714 5718 5722 5726 5730 5735 5741 5747 5752 5757 5760 5764 5768 5772 5776 5780 5784 5787 5791 5794 5797 5801 5805 5809 5813 5816 5818 5821 5823
5666 5665 5664 5663 5661 5660 5659 5658 5658 5657 5657 5656 5656 5655 5655 5655 5655 5656 5656 5657 5658 5659 5660 5662 5665 5669 5674 5678 5681 5686 5692 5698 5702 5705 5707 5711 5715 5719 5723 5727 5733 5739 5744 5749 5754 5758 5762 5766 5771 5775 5779 5782 5785 5789 5792 5796 5799 5803 5808 5811 5814 5816 5818
5665 5663 5662 5661 5659 5657 5656 5655 5654 5653 5652 5651 5650 5649 5649 5649 5648 5649 5649 5650 5651 5652 5653 5655 5657 5661 5664 5668 5672 5677 5683 5689 5694 5697 5700 5703 5707 5711 5715 5720 5725 5730 5736 5742 5747 5752 5756 5760 5764 5769 5773 5777 5780 5783 5787 5790 5794 5798 5802 5806 5809 5811 5813
5662 5661 5660 5658 5657 5655 5653 5652 5650 5649 5647 5646 5645 5644 5643 5642 5642 5642 5642 5643 5643 5645 5647 5648 5650 5653 5655 5659 5663 5668 5674 5681 5685 5689 5692 5696 5700 5704 5708 5712 5717 5722 5728 5734 5740 5745 5750 5754 5758 5763 5768 5772 5775 5778 5781 5785 5788 5792 5796 5800 5803 5806 5809
Wind_Speed
37 37 36 36 36 36 37 38 38 39 38 38 38 40 41 42 42 44 43 42 41 38 34 32 29 27 27 25 26 26 23 23 24 23 18 13 10 12 16 18 19 19 19 18 17 16 15 14 14 14 14 14 15 16 19 21 23 23 23 25 25 25 23
37 38 37 36 35 36 38 39 38 38 37 38 38 39 40 42 43 44 43 43 43 41 39 37 34 32 29 28 29 29 27 26 26 25 22 19 13 11 14 18 20 21 20 19 18 17 15 15 15 15 15 16 16 17 19 21 23 24 24 25 26 26 25
36 38 37 35 35 36 37 37 37 36 37 38 38 38 39 40 41 42 41 42 44 45 42 39 38 36 33 31 31 29 28 28 27 24 22 21 18 15 14 15 17 20 20 19 18 17 16 16 16 17 17 17 16 15 17 21 23 25 26 27 28 28 27
35 37 37 35 35 36 36 36 37 36 38 39 39 38 39 38 39 39 38 38 41 44 44 43 42 41 38 35 33 30 30 30 28 25 24 22 20 17 15 12 13 17 19 19 19 18 18 18 18 18 18 16 15 14 15 19 23 25 27 27 28 28 28
36 37 37 36 36 36 36 37 38 37 38 40 40 40 40 39 38 37 36 35 38 42 45 45 45 43 40 38 34 31 30 30 29 27 25 23 20 19 18 15 12 15 17 19 20 20 20 21 21 20 19 17 15 13 14 17 21 23 24 25 26 27 28
37 39 39 37 37 37 38 39 40 39 39 40 40 40 41 41 40 38 35 35 36 38 42 43 44 43 40 37 34 32 31 30 29 27 25 23 21 20 21 20 17 16 17 17 20 22 23 23 22 21 19 18 16 13 13 15 18 20 22 25 26 27 28
36 39 39 39 38 39 40 40 40 40 40 40 40 41 42 42 41 39 36 35 37 37 38 38 39 39 37 36 36 35 34 31 28 26 25 25 24 23 23 23 22 20 18 17 19 23 24 24 22 21 20 18 16 14 13 14 17 19 21 24 27 28 29
36 38 40 40 39 39 41 42 42 42 41 41 41 41 42 42 42 40 38 38 39 38 37 36 35 35 37 38 38 37 36 33 29 27 26 27 28 28 26 25 25 25 23 20 20 23 25 25 24 22 21 19 18 16 14 13 16 20 23 25 28 29 29
38 39 40 40 39 39 41 42 43 44 42 41 41 41 42 42 42 41 40 41 41 39 38 37 35 36 40 40 39 37 35 33 31 30 30 31 32 32 30 29 30 30 26 22 21 23 26 26 25 23 22 21 19 17 15 14 16 20 23 26 28 29 30
42 42 42 41 40 40 41 41 43 45 45 43 42 43 43 42 43 43 42 44 43 40 40 41 38 39 42 41 38 36 32 31 32 32 33 34 35 34 33 32 34 34 32 28 26 27 28 29 28 26 24 23 22 20 18 16 16 18 21 24 27 29 30
45 46 45 44 43 43 44 43 44 46 47 46 44 44 44 44 43 44 45 46 45 43 43 43 41 41 42 41 38 36 32 31 33 34 34 35 36 36 35 34 34 35 35 33 31 31 33 34 33 30 28 27 26 24 22 20 19 19 20 23 25 28 30
44 48 48 47 47 47 47 46 46 47 48 47 46 45 45 46 45 45 46 47 46 46 46 46 43 41 41 38 36 36 35 33 33 34 35 36 36 36 36 35 36 36 36 34 32 32 35 37 36 35 34 33 31 29 27 25 24 22 21 22 24 26 28
39 47 51 51 50 49 48 48 48 49 49 48 48 48 48 48 47 47 47 47 47 48 48 48 46 43 41 37 34 36 38 36 35 34 35 36 37 37 36 36 37 39 39 38 35 33 34 36 36 36 36 36 35 34 32 31 28 26 25 25 25 26 27
37 42 50 54 53 51 50 50 50 51 51 50 50 51 51 50 49 48 47 47 47 48 48 48 48 47 45 41 37 37 39 39 38 36 35 37 38 38 37 37 38 40 42 42 40 37 35 35 36 36 36 37 37 36 35 34 32 30 29 28 27 27 27
41 41 45 51 56 55 53 52 52 53 54 53 52 53 54 53 51 50 48 47 48 48 48 48 49 50 49 46 42 40 40 41 41 38 37 38 38 37 38 39 39 41 44 45 44 42 40 38 37 37 36 37 37 37 37 36 34 32 32 31 30 28 28
45 45 44 47 53 58 57 55 54 55 56 56 55 55 56 56 53 52 50 49 49 49 48 49 51 51 50 49 47 44 43 45 45 42 40 40 40 39 40 41 42 42 44 46 47 46 44 42 41 40 39 37 38 38 38 38 37 35 34 33 31 30 30
45 47 48 48 50 54 59 60 58 57 57 58 58 57 57 57 56 54 53 53 52 51 50 51 54 53 50 49 48 47 47 48 49 46 44 43 43 42 42 43 44 43 43 45 48 47 46 45 44 43 42 41 40 40 41 40 40 38 37 36 34 32 32
41 43 47 50 50 51 55 61 63 61 60 60 60 59 59 59 58 58 57 56 56 54 53 55 56 55 52 51 50 49 49 51 52 51 49 47 46 44 43 44 45 44 43 45 48 49 48 47 46 45 45 44 43 43 42 42 41 41 40 39 37 35 33
33 36 42 49 51 50 53 58 63 66 65 62 62 63 62 61 60 60 60 59 59 59 57 57 58 57 55 53 52 51 51 53 55 56 54 51 49 48 47 46 46 45 43 44 47 50 49 48 48 48 47 47 46 45 44 43 42 40 40 39 37 36 36
28 30 35 42 48 50 52 55 60 65 68 67 65 64 64 64 62 62 63 63 62 62 60 60 61 60 58 56 54 53 53 53 53 56 58 56 55 53 51 50 50 50 47 44 46 49 50 50 51 51 50 50 49 48 46 44 41 39 39 39 35 32 33
28 28 29 34 40 46 50 53 56 61 66 70 70 68 66 67 65 64 65 66 65 65 64 63 63 63 61 59 57 56 56 55 53 53 58 60 60 60 57 54 53 54 51 48 47 49 51 52 52 52 51 50 49 48 47 44 41 40 40 40 35 31 30
28 29 27 27 32 39 42 43 49 56 61 67 73 74 70 69 68 67 67 68 68 68 67 66 66 66 64 62 61 59 58 58 56 54 56 61 65 64 61 57 56 55 53 52 52 52 52 52 51 50 49 49 49 48 46 44 42 41 41 40 37 35 33
27 29 29 27 28 32 33 34 40 48 55 60 69 75 76 73 71 70 70 70 70 70 71 69 68 68 67 64 63 62 60 60 60 57 56 57 61 64 63 59 57 56 54 53 53 53 53 53 51 49 49 49 48 46 45 43 42 42 43 41 39 37 36
26 28 29 28 28 31 32 31 33 39 47 53 61 70 76 77 75 73 72 72 72 72 73 73 71 71 71 68 65 64 64 63 62 62 60 55 53 59 64 61 58 57 55 53 52 53 54 53 51 51 49 47 45 45 43 42 41 41 44 44 40 38 38
25 26 28 29 30 32 33 32 32 34 40 47 55 63 72 77 79 78 76 75 75 74 75 77 76 75 74 72 69 66 66 66 65 66 67 60 51 55 62 61 59 59 58 55 54 53 53 52 51 50 49 46 45 45 44 42 41 41 44 45 42 40 41
24 25 26 28 29 31 32 33 34 34 38 44 50 56 64 72 79 83 81 79 77 77 77 79 81 79 77 75 74 70 68 69 69 69 70 66 57 56 59 58 58 60 59 56 55 54 53 51 50 50 49 48 46 45 44 45 44 44 44 45 44 43 43
23 22 23 24 25 27 29 31 32 34 36 40 43 47 55 64 74 81 85 84 81 79 79 80 82 82 80 78 77 75 72 71 72 73 72 69 64 62 60 56 56 60 61 57 54 54 54 53 52 51 50 48 47 46 46 47 47 46 45 45 45 46 45
21 20 19 19 20 23 25 27 29 31 33 35 37 40 46 55 65 74 82 86 86 83 80 80 82 83 83 81 79 79 77 75 74 75 75 73 70 69 66 59 53 55 59 59 56 54 54 54 53 53 50 46 43 42 44 46 47 47 46 45 47 48 47
17 16 16 17 18 20 24 26 27 29 30 31 32 35 39 46 57 67 75 82 87 87 85 83 83 84 85 84 82 81 81 79 77 76 76 75 74 73 72 66 57 51 53 57 58 57 55 54 54 53 51 47 42 39 41 44 46 47 47 46 46 48 49
14 13 15 16 17 19 22 25 27 29 30 32 32 33 34 39 48 59 68 75 82 87 89 87 86 86 86 86 85 85 84 83 81 79 78 77 76 74 73 71 66 58 53 54 58 59 58 57 56 56 53 49 45 42 42 45 44 43 43 42 41 45 50
12 13 15 16 16 18 20 23 25 27 29 31 33 34 34 36 40 49 60 69 76 82 87 90 90 89 89 89 88 88 88 87 85 83 81 79 78 77 74 72 72 69 62 57 57 59 62 61 59 58 56 52 48 45 45 47 45 40 39 38 36 39 48
11 12 14 15 16 18 19 20 22 24 27 30 32 34 35 36 37 41 49 60 69 76 81 86 90 92 92 92 92 90 89 90 90 88 86 83 81 80 78 75 74 73 71 65 60 58 60 61 60 59 59 56 52 48 45 47 47 43 40 37 34 35 44
13 12 12 12 14 17 19 20 22 23 25 28 31 34 36 38 38 39 42 49 60 69 75 80 86 90 93 94 95 93 90 90 92 92 91 88 85 83 81 79 77 75 74 72 67 62 58 57 58 60 61 59 55 50 48 48 49 47 44 41 37 37 42
14 13 12 12 13 15 17 18 20 22 25 27 30 33 36 39 40 42 42 44 49 58 67 74 80 85 90 93 95 94 91 90 92 93 93 92 90 88 85 82 80 78 76 74 72 69 63 59 57 57 58 57 54 52 52 52 51 49 48 45 41 40 42
14 14 14 13 14 15 16 17 17 19 21 24 28 32 36 39 41 43 45 46 47 50 56 65 72 79 85 90 93 94 92 90 91 92 92 92 92 91 89 86 82 81 80 78 75 72 69 66 62 58 56 55 54 52 53 54 53 51 51 50 46 43 44
14 14 14 15 15 16 17 18 18 18 19 19 22 26 31 36 39 42 45 47 49 50 52 56 62 69 76 83 90 93 92 91 91 92 92 92 92 92 92 90 87 83 82 81 79 75 72 70 68 65 60 57 55 54 54 56 56 54 53 52 50 47 47
16 16 16 16 16 16 17 19 20 20 20 20 21 21 24 29 33 38 42 45 48 51 53 53 55 60 67 74 81 88 92 91 91 93 94 95 94 94 93 93 91 88 84 82 81 80 78 75 72 70 67 62 59 57 57 57 57 56 55 53 51 50 51
Wind_Direction
221 222 220 219 219 221 223 223 221 220 219 216 213 212 213 214 215 217 220 225 229 231 231 228 223 223 221 213 209 213 219 227 225 219 219 223 229 233 221 208 204 207 206 203 201 199 201 207 212 215 214 214 216 216 210 203 200 201 201 198 197 199 201
220 222 221 218 217 219 223 225 223 222 222 221 217 215 214 215 216 217 217 220 226 229 229 228 225 224 223 218 214 214 218 226 226 222 223 221 216 226 231 220 210 207 206 201 198 197 199 205 210 212 213 215 216 215 214 209 202 200 202 201 199 198 199
218 222 222 217 215 217 221 224 224 222 220 221 220 219 219 218 217 218 216 215 221 226 228 228 225 224 224 223 220 217 219 224 226 224 220 214 209 213 225 231 221 211 206 203 200 199 200 205 211 214 214 216 216 214 214 213 206 202 203 204 201 198 198
216 220 221 216 215 217 217 219 222 221 220 220 219 219 221 222 222 221 218 215 217 222 225 226 225 224 223 223 222 220 222 223 222 222 216 208 208 209 212 225 224 211 205 205 205 204 204 206 212 218 218 219 219 216 213 212 211 207 205 206 205 201 198
215 218 219 217 215 216 216 217 219 219 220 221 221 220 219 220 222 223 222 220 218 219 222 223 224 225 223 222 222 222 223 222 220 218 214 210 209 208 207 214 218 207 200 202 207 207 206 207 212 217 218 218 219 217 211 209 211 211 207 208 210 207 203
214 215 218 218 216 214 214 216 218 218 219 221 222 222 221 218 219 220 222 223 221 219 221 221 222 224 224 222 221 220 221 220 217 215 213 212 212 211 209 211 215 208 198 199 207 209 208 209 212 217 218 217 217 215 211 207 207 209 208 207 209 210 208
214 215 218 219 216 215 214 214 217 219 220 221 221 223 224 221 219 217 217 220 222 221 223 221 218 219 219 215 212 215 220 219 215 213 212 209 212 216 215 212 214 215 209 206 208 209 209 209 211 215 218 216 216 216 213 206 203 204 206 206 207 209 209
214 215 217 220 219 218 216 215 217 219 220 221 220 222 225 224 220 216 212 215 219 219 221 220 215 211 209 206 207 213 219 219 216 214 211 206 208 214 215 210 209 214 217 216 213 210 208 207 209 213 216 215 214 216 214 207 204 204 205 205 205 207 209
211 213 215 218 218 218 217 216 216 217 218 219 218 218 221 223 221 217 212 213 215 214 216 217 211 207 206 207 209 212 215 216 216 212 206 202 204 209 211 206 204 208 211 212 211 209 207 206 207 209 212 213 213 214 214 210 208 209 209 207 205 204 207
207 209 211 214 215 215 215 215 215 216 216 216 216 215 217 219 220 218 214 214 213 210 213 215 208 203 205 205 206 210 211 212 212 210 205 204 204 206 207 205 202 203 203 201 200 200 200 201 203 204 206 208 210 212 214 214 213 213 214 211 208 205 205
206 207 210 213 214 213 214 214 214 216 216 216 216 216 216 217 219 219 217 216 213 208 210 214 209 203 204 206 207 209 208 205 206 208 208 208 209 207 207 205 202 201 200 198 196 194 194 196 198 200 201 203 205 208 211 215 217 216 216 215 212 208 207
210 209 210 212 213 213 214 214 215 216 217 217 217 218 218 217 218 219 220 219 214 209 210 213 211 206 205 208 209 206 203 202 204 207 208 208 209 210 208 207 203 200 199 198 196 194 194 195 197 199 199 199 201 203 206 210 214 216 216 215 213 210 208
218 213 212 212 213 214 215 215 215 216 217 217 217 218 218 217 216 219 222 222 217 212 212 214 214 210 205 205 206 202 200 202 203 206 207 206 208 209 210 209 206 202 201 200 198 197 197 198 200 200 200 201 202 202 204 207 208 211 212 212 210 209 208
229 220 216 215 216 216 216 216 216 216 217 217 216 216 217 217 216 217 220 222 220 216 213 214 215 214 209 206 205 203 203 204 204 205 207 207 209 211 212 212 210 206 204 203 202 200 200 200 202 203 203 205 205 204 205 206 206 207 208 207 207 207 205
238 230 223 219 218 218 217 217 217 217 217 217 216 216 217 216 215 215 217 220 220 218 214 213 214 216 215 211 208 207 207 207 207 208 209 209 211 214 215 216 216 211 208 207 207 206 204 204 206 208 208 207 207 208 209 208 207 207 206 203 204 205 205
243 238 231 225 221 220 219 218 218 218 218 218 217 217 217 216 215 215 216 217 218 217 214 211 211 214 216 212 209 210 210 207 206 208 210 210 210 213 216 217 218 216 213 211 211 211 209 208 210 212 213 211 210 210 211 211 211 210 206 204 204 204 205
248 244 238 232 226 222 220 219 219 220 219 219 218 218 218 217 215 214 213 214 215 215 213 211 209 209 212 210 208 209 209 206 206 207 211 213 212 212 214 216 217 218 217 215 214 214 213 211 212 214 214 214 213 212 212 212 213 213 209 205 204 204 206
252 249 243 237 231 225 222 221 220 220 220 219 218 219 219 218 216 214 213 213 215 215 213 212 209 208 209 208 206 207 207 207 207 207 210 214 213 211 211 213 215 218 219 218 217 216 215 213 212 214 214 215 215 215 215 214 215 217 215 209 204 204 205
255 252 248 241 234 229 226 224 221 221 220 219 218 218 219 219 218 216 214 213 214 215 214 213 212 210 210 209 207 206 206 207 208 208 209 213 214 212 212 213 214 216 218 219 218 217 216 215 213 213 213 214 215 215 216 216 217 220 221 216 208 204 203
260 257 252 244 237 233 231 227 223 222 221 220 218 217 218 220 220 218 216 214 215 215 214 214 214 213 211 211 210 207 206 209 210 209 209 212 215 215 215 215 214 216 218 219 220 219 218 217 215 214 214 214 215 215 216 218 219 221 223 223 218 210 206
262 261 258 249 240 236 234 231 227 224 222 221 220 218 218 219 220 219 217 215 215 216 216 214 215 216 214 212 212 209 207 209 212 210 209 212 214 215 217 217 215 217 218 218 219 219 219 219 217 216 216 216 215 216 216 217 219 221 221 221 221 219 216
262 261 260 255 246 240 237 236 233 229 225 222 221 219 218 218 219 219 219 217 216 217 217 216 215 217 217 215 213 212 209 209 212 212 209 211 214 215 215 217 218 218 219 218 217 218 219 220 219 217 219 220 217 215 215 216 219 222 220 217 216 219 221
265 261 258 255 252 246 242 239 237 234 229 226 223 221 219 218 219 218 219 219 217 217 218 218 216 217 218 217 215 214 212 209 210 212 210 211 214 215 214 217 219 219 218 217 217 217 218 219 221 220 221 222 220 215 213 215 218 221 220 216 213 216 219
270 265 260 254 252 250 246 241 238 238 235 230 226 223 219 219 220 219 218 218 219 219 219 219 218 217 219 219 218 216 215 211 209 211 213 212 213 213 213 216 219 219 218 216 216 217 217 217 219 221 223 224 221 216 214 215 218 220 219 217 215 216 218
272 267 263 256 250 250 249 243 238 238 239 236 230 225 220 219 220 221 220 219 218 218 220 221 220 218 218 220 219 218 216 214 211 211 214 216 215 211 209 213 217 218 218 218 218 219 219 217 217 219 223 224 221 219 219 219 218 218 218 217 217 218 218
273 268 265 259 252 249 249 245 237 234 239 240 234 227 223 220 220 220 222 222 219 218 219 221 222 220 218 219 220 220 218 216 214 213 215 217 217 210 207 210 215 217 219 220 220 221 221 219 216 217 221 223 222 222 223 223 221 219 219 220 220 221 220
276 272 269 264 256 250 247 244 238 234 237 242 240 234 228 224 222 221 222 223 223 221 219 220 222 223 221 219 220 221 221 219 217 215 217 218 216 213 212 211 211 214 219 221 221 222 221 219 217 217 221 223 224 224 225 225 225 223 223 223 223 222 221
279 278 277 270 259 250 245 241 238 236 238 242 244 242 236 229 225 223 222 223 224 224 221 220 221 222 222 221 220 221 223 223 220 218 218 219 218 217 219 218 214 212 215 219 222 222 221 220 218 216 216 219 223 225 225 226 227 226 225 226 225 223 221
283 281 278 273 261 250 244 240 237 236 239 241 243 244 242 236 231 227 225 224 224 225 223 221 221 222 223 222 222 222 223 225 224 221 220 220 221 221 222 222 220 214 211 214 219 220 220 220 218 214 214 217 223 226 227 229 230 228 226 227 229 227 223
289 281 273 271 266 256 249 245 242 240 241 242 242 242 243 241 236 232 228 226 226 226 225 223 222 223 224 223 222 222 223 225 226 226 223 222 222 223 223 223 223 219 213 212 216 218 220 220 218 217 219 221 224 228 230 230 230 228 223 226 231 229 223
300 285 275 270 267 263 259 254 251 248 245 244 243 241 241 241 240 237 233 230 228 227 227 225 223 223 225 226 224 222 222 224 226 228 227 225 225 225 224 223 223 221 219 216 215 217 220 223 222 222 224 225 227 231 232 229 228 227 224 226 233 229 220
322 303 287 277 270 267 265 261 257 254 250 248 246 244 242 242 241 240 237 234 231 229 229 228 226 224 225 227 228 226 223 222 224 227 228 228 227 226 226 224 223 222 221 220 219 217 217 220 222 224 226 229 233 235 232 228 227 229 227 226 229 226 217
327 319 307 295 284 278 273 268 264 259 254 250 248 247 246 244 243 242 241 238 235 232 231 230 229 226 225 227 229 229 227 224 224 226 228 228 228 228 228 226 224 223 222 222 223 222 218 216 219 223 226 231 235 234 230 226 226 227 226 224 224 222 217
322 319 315 309 300 292 286 279 272 266 260 254 251 249 248 247 245 244 243 242 240 236 234 232 231 229 227 227 228 230 230 227 225 225 227 228 228 229 229 228 226 225 224 223 225 226 225 221 220 222 226 231 234 232 228 226 224 223 222 221 221 222 220
324 319 314 309 304 299 297 293 286 279 272 265 257 251 248 247 246 245 244 243 243 241 238 236 234 232 230 228 228 229 230 229 227 226 227 227 228 229 229 229 228 227 226 225 225 227 228 228 225 224 226 229 231 230 228 225 223 222 221 220 220 222 223
324 322 316 312 307 301 300 298 296 295 294 288 277 264 253 247 246 245 244 243 242 242 241 240 237 235 233 231 229 229 229 229 229 228 227 228 228 229 229 230 230 229 228 228 227 227 229 229 229 227 227 228 230 230 228 226 225 224 223 221 219 221 223
318 320 319 315 312 308 305 303 301 300 301 302 299 287 268 254 248 245 243 243 242 241 240 240 239 238 236 235 232 230 229 228 229 229 228 228 228 229 230 230 231 231 231 230 229 228 229 230 231 230 229 229 231 231 229 227 226 225 224 223 221 221 222